Theta_e
330 332 332 331 333 334 335 336 337 337 340 341 340 341 339 339 341 343 342 342 341 340 340 339 336 334 332 328 329 330 333 326 325 318 322 320 324 324 324 324 324 323 323 322
331 331 330 330 333 334 336 337 337 338 341 341 339 339 338 340 342 344 343 342 341 341 341 341 338 335 333 329 329 331 333 331 325 327 316 313 317 323 323 324 323 321 323 323
331 330 329 332 335 336 336 337 337 338 339 341 338 339 338 339 339 341 343 344 343 343 342 343 343 339 336 333 330 334 335 332 324 326 322 314 315 323 324 325 325 325 323 323
332 330 330 332 333 335 336 336 337 337 338 337 339 340 339 339 338 339 339 338 338 338 337 337 337 342 339 335 330 334 336 332 326 329 325 315 320 321 322 322 324 323 323 323
332 331 331 332 333 335 338 338 339 338 337 340 337 340 337 338 337 340 339 339 338 336 337 337 337 338 342 336 332 332 334 329 330 329 326 318 320 324 323 323 322 323 324 324
331 330 330 330 334 337 337 339 338 338 336 336 337 340 337 338 338 340 339 338 337 337 336 338 339 339 338 336 333 336 332 332 329 330 328 319 317 318 322 324 323 323 323 323
330 331 330 329 333 338 338 337 337 336 335 335 337 340 338 337 338 339 339 338 337 336 335 339 339 339 337 335 334 336 338 334 327 331 330 321 319 319 320 321 323 321 323 323
331 331 330 332 334 336 335 336 337 337 335 333 336 335 336 337 338 339 338 337 338 336 336 340 340 339 338 337 336 336 339 336 328 329 331 324 321 324 326 324 323 323 323 323
331 330 330 334 334 337 339 337 338 338 338 336 332 334 336 337 338 339 339 337 338 337 336 339 339 340 339 338 338 337 336 334 335 332 332 326 323 322 326 321 320 324 322 324
331 330 330 332 334 336 337 337 338 338 337 334 332 334 337 336 338 340 340 337 336 337 336 337 339 339 339 339 339 338 337 336 336 336 332 330 326 324 323 323 322 320 320 321
331 332 331 332 333 334 337 338 339 338 338 335 335 335 337 337 340 341 338 337 334 332 334 337 339 339 339 339 339 340 338 337 336 335 334 331 330 327 327 325 326 326 322 322
331 334 331 330 334 335 337 337 338 337 335 337 339 339 338 339 339 339 338 336 332 331 333 336 339 339 339 339 339 339 338 338 338 336 334 332 331 329 329 327 326 326 321 321
333 337 336 338 338 337 337 337 338 341 342 337 338 336 337 339 339 338 337 336 332 332 333 334 337 339 338 339 339 338 338 338 338 337 334 332 330 327 325 321 321 321 319 322
335 339 335 332 333 333 334 334 337 338 336 337 335 336 336 339 341 339 338 334 332 332 333 334 336 337 339 339 339 338 338 338 338 336 332 330 327 322 319 318 319 320 325 324
341 335 334 333 333 333 332 333 333 335 335 337 336 337 338 341 340 338 337 333 331 332 334 334 336 337 339 339 338 338 338 337 336 333 331 328 326 326 326 323 323 322 324 327
340 337 336 334 333 334 334 333 333 334 336 337 337 339 339 340 338 338 336 333 332 332 334 335 336 337 338 338 336 336 335 334 332 331 328 326 327 328 327 324 327 330 328 324
341 341 339 336 335 335 335 333 333 335 337 340 339 340 339 339 339 338 336 333 334 333 333 334 335 337 338 337 336 335 332 328 330 329 328 327 327 327 329 330 329 324 316 318
341 341 339 338 338 338 337 339 338 339 339 339 339 338 338 338 338 335 334 334 334 335 335 335 335 337 333 336 334 330 330 330 330 329 329 330 330 329 328 325 321 316 319 313
340 341 336 337 336 334 333 339 341 341 340 338 338 337 337 337 337 338 336 335 336 336 337 335 335 336 335 333 332 331 330 329 330 331 329 327 326 325 321 318 317 319 319 317
339 340 339 337 334 334 341 339 336 337 340 338 338 339 339 338 338 340 339 337 335 338 337 336 335 335 334 330 329 331 330 330 329 327 325 322 318 317 317 317 316 313 317 316
336 338 336 336 335 336 337 337 336 342 346 341 340 340 340 340 337 340 337 336 335 336 337 336 334 335 334 331 332 332 331 329 326 324 318 315 316 311 311 311 315 317 316 316
336 338 338 339 337 336 337 340 339 344 340 340 339 339 339 339 339 338 336 336 337 337 338 335 334 335 333 333 332 331 330 326 325 312 314 314 314 314 315 315 316 316 316 314
340 341 341 339 339 341 339 339 338 339 339 338 339 339 339 338 337 336 336 336 338 338 338 335 334 333 332 331 331 330 326 323 312 311 310 314 314 315 316 316 316 314 313 311
339 339 339 340 336 335 336 336 338 338 338 338 337 337 338 338 337 338 337 336 338 337 335 334 332 331 328 327 326 327 322 309 312 313 314 314 315 315 315 314 314 313 311 311
338 339 337 337 334 334 335 337 337 337 336 336 335 336 337 336 338 337 335 336 337 336 334 332 330 329 326 325 326 321 309 307 314 314 314 315 315 315 315 314 313 313 310 309
334 333 336 335 337 336 334 337 336 336 336 336 337 337 337 338 338 335 334 335 336 336 333 331 329 327 325 326 323 309 307 308 311 315 315 314 314 314 313 314 314 313 309 309
Wind_Speed
1 10 10 13 9 8 8 7 8 7 6 7 9 10 10 11 5 5 10 12 12 13 15 14 13 15 16 17 12 6 2 4 8 9 4 5 5 7 7 7 8 8 7 7
9 1 7 7 6 3 4 8 10 1 6 6 10 8 7 8 8 6 4 3 6 9 12 13 16 16 19 19 20 17 17 14 6 7 7 6 6 6 6 6 8 10 9 9
6 6 5 4 2 8 7 10 9 9 4 1 14 8 8 4 4 6 5 3 2 6 9 9 14 20 22 24 26 18 18 13 13 5 5 6 6 6 5 7 8 9 8 9
6 2 5 7 4 9 8 8 4 5 9 9 7 3 11 8 3 10 12 10 8 8 9 10 11 17 24 25 27 18 14 18 12 4 4 4 4 4 6 6 7 6 7 8
4 5 8 9 8 7 6 4 5 4 4 7 11 8 9 5 10 11 10 10 10 11 13 12 11 6 18 20 20 20 14 18 13 4 2 4 2 4 5 5 7 7 7 8
13 1 5 6 2 3 3 8 5 5 4 1 7 6 9 9 9 9 9 10 11 13 13 11 9 6 9 13 17 17 17 15 11 6 3 2 2 2 3 5 5 5 5 6
13 15 3 6 8 5 7 6 5 5 6 8 4 8 8 9 7 6 6 10 11 12 13 10 7 6 6 10 15 16 13 12 10 9 4 2 2 2 4 5 5 5 5 5
10 13 12 7 7 7 2 6 5 10 9 11 6 6 6 4 5 4 4 9 11 13 14 12 9 7 6 9 13 14 11 9 10 10 6 4 4 2 2 5 4 5 4 5
6 11 7 2 3 5 5 4 4 6 7 7 6 7 6 4 4 3 5 8 11 12 13 10 9 7 6 7 11 12 8 7 9 9 9 6 6 4 4 3 7 6 7 6
4 6 4 4 4 3 6 2 5 4 6 13 12 10 8 11 7 5 5 8 9 9 10 8 6 5 5 7 11 13 8 3 7 10 10 9 8 6 6 7 7 8 9 10
7 6 5 4 7 6 4 8 2 3 5 8 9 11 8 7 6 6 6 8 9 10 11 8 5 3 3 4 9 12 9 3 1 4 9 10 9 8 9 9 9 9 10 11
6 5 9 4 4 4 5 4 3 5 8 4 6 4 5 5 5 3 5 6 7 7 6 5 3 2 2 3 8 10 12 7 2 1 6 7 9 9 9 9 8 10 12 13
8 4 7 8 6 5 4 2 1 2 3 10 7 6 2 4 2 2 4 3 4 6 8 7 4 1 1 4 7 7 9 11 9 4 4 3 4 5 7 6 7 9 11 13
2 1 4 7 7 4 3 2 1 4 7 8 8 14 13 10 4 1 1 2 4 6 8 9 7 5 3 5 5 5 5 6 6 4 3 2 1 3 5 5 6 8 11 13
2 2 1 3 1 2 4 7 4 7 5 6 13 13 12 10 7 3 1 1 2 5 7 7 7 6 6 6 6 6 4 4 4 4 2 2 2 4 6 7 8 10 11 9
1 3 2 4 3 6 8 6 5 6 7 8 9 8 10 9 5 4 1 2 2 2 5 4 7 7 6 6 5 6 5 4 5 2 2 3 4 6 5 6 8 8 7 8
2 2 5 4 1 7 9 2 6 7 6 6 10 13 12 9 7 6 3 5 4 2 2 2 6 8 8 7 6 6 6 4 3 1 2 4 4 4 5 6 6 7 8 7
2 3 4 7 5 10 6 5 4 7 9 5 7 9 9 10 8 5 6 7 6 4 2 2 5 8 9 9 8 8 6 4 2 1 4 4 4 4 5 6 6 6 5 6
2 5 5 7 9 5 7 3 4 5 10 4 6 10 13 11 11 6 4 5 5 3 2 4 5 7 10 10 8 7 4 3 2 3 4 4 5 5 4 4 4 3 2 4
2 4 6 2 7 6 8 4 2 2 6 9 9 11 12 12 10 6 8 10 9 5 4 6 7 8 8 8 6 5 3 2 1 3 4 6 5 3 3 3 3 3 2 3
4 4 7 3 5 1 5 2 1 6 5 12 11 11 11 11 14 12 12 15 12 11 8 8 9 9 8 7 6 5 3 1 3 5 4 4 2 2 2 3 1 2 1 3
3 3 3 2 4 4 3 3 5 5 10 11 12 14 15 16 16 14 16 17 12 9 10 11 11 10 8 7 6 4 2 5 6 5 2 2 1 1 1 2 2 1 2 6
3 3 4 3 4 5 2 5 6 8 10 11 13 14 13 15 17 19 20 16 13 9 11 12 11 9 9 8 6 4 5 4 4 3 1 0 0 0 1 2 0 2 5 5
5 3 4 3 4 4 7 5 4 5 7 11 12 12 11 14 14 16 12 10 6 5 12 12 10 7 8 7 5 6 5 5 2 1 0 2 1 2 2 1 1 2 3 5
5 6 5 9 13 7 3 3 5 7 9 9 10 9 9 10 13 11 7 5 1 6 9 8 9 11 11 7 4 6 5 3 3 2 2 2 3 2 3 2 2 1 5 4
8 9 7 8 8 6 8 6 10 8 7 10 11 11 10 10 11 9 7 5 4 8 9 10 11 10 7 6 5 4 5 3 4 3 3 3 4 3 4 4 5 7 7 8
Wind_Direction
295 284 23 348 341 324 322 330 343 20 32 305 13 340 356 21 22 253 257 256 255 250 250 242 239 221 201 209 204 195 274 325 342 333 277 313 292 274 281 284 288 297 307 319
230 281 9 338 340 303 291 305 28 92 34 305 347 338 35 24 27 18 343 283 276 270 266 252 240 217 209 209 210 221 237 222 175 274 306 291 290 284 274 273 284 299 303 311
296 25 317 311 59 297 75 355 352 349 326 221 322 130 67 67 26 45 61 59 334 301 297 288 254 224 213 210 217 227 242 211 216 254 313 318 310 313 312 304 306 292 302 300
286 14 302 311 38 340 2 7 330 339 334 17 340 55 67 22 36 75 62 53 38 15 357 339 307 238 216 213 221 225 239 220 218 227 322 327 244 271 279 297 286 286 294 295
246 279 336 294 19 332 33 327 343 328 344 299 26 287 56 62 41 60 54 43 33 17 6 358 351 306 211 210 216 213 213 217 221 205 294 319 299 290 298 302 300 306 292 306
272 301 285 351 336 329 142 256 249 246 269 16 26 314 72 33 16 30 40 41 32 26 23 16 31 85 170 194 192 201 202 227 215 217 233 320 326 340 305 306 316 323 300 311
223 240 214 240 243 177 243 295 308 343 351 26 64 272 35 28 26 16 33 41 39 32 33 37 47 81 137 175 190 197 207 216 210 227 217 291 313 347 347 349 331 319 320 321
229 222 202 170 262 329 25 324 349 326 348 331 145 356 30 20 43 77 67 55 43 39 43 64 75 92 127 165 187 191 208 210 222 237 219 254 294 275 290 338 336 326 327 318
228 247 119 61 302 300 131 269 23 287 215 279 351 15 154 73 91 81 77 51 43 40 45 60 72 92 127 159 181 181 195 211 220 232 223 245 275 266 251 330 346 319 322 313
219 270 175 113 192 124 290 97 243 232 321 319 340 296 36 360 359 22 70 46 40 33 37 47 64 88 117 158 176 180 194 227 239 225 216 234 257 275 284 296 316 322 314 315
247 254 141 201 213 332 186 208 249 301 285 321 319 342 55 358 359 7 39 43 34 24 28 27 42 75 125 157 176 190 190 156 109 203 216 236 253 270 282 293 286 294 304 304
186 242 242 268 65 314 291 337 286 299 327 344 282 316 49 12 7 31 41 53 42 33 36 28 30 61 81 171 192 197 195 211 231 242 233 244 261 276 282 295 285 286 297 301
174 200 204 176 169 172 257 102 15 299 270 286 312 349 77 31 342 72 21 53 64 48 38 41 34 44 138 170 188 190 208 223 229 260 247 251 268 297 305 311 303 295 300 303
159 104 322 342 20 359 254 199 306 300 285 344 312 343 339 23 11 30 -0 93 59 66 57 54 65 78 97 131 153 158 183 196 215 230 216 229 274 7 10 351 322 313 307 308
285 138 217 74 68 260 306 303 251 263 302 297 337 329 0 6 345 350 2 102 146 91 73 73 93 95 113 125 141 138 158 171 180 179 210 236 272 307 315 320 319 321 325 333
45 170 238 188 217 265 290 302 237 276 286 285 316 334 11 350 320 282 294 201 264 86 84 94 106 112 134 137 135 138 140 142 157 185 226 261 285 299 310 330 335 345 353 355
294 155 242 266 246 291 262 204 287 301 282 327 316 350 336 334 333 315 298 286 335 253 134 155 132 139 151 157 142 135 129 136 155 196 298 303 316 324 349 360 2 1 355 17
273 269 282 278 280 264 68 48 338 301 302 299 301 340 335 322 325 328 359 339 314 299 264 210 154 151 151 144 144 142 136 150 167 21 355 349 355 342 0 11 10 11 22 5
323 255 262 264 265 303 234 66 357 348 313 27 339 342 338 333 313 194 22 19 326 301 249 194 178 162 148 150 154 156 136 129 99 26 3 359 5 351 4 20 24 24 18 45
127 227 252 194 282 285 59 74 12 307 254 26 346 322 333 328 305 66 352 334 304 274 229 191 167 162 164 161 159 133 135 146 68 354 343 336 343 14 35 38 1 350 56 51
217 242 261 242 279 91 78 106 222 254 35 341 341 321 307 297 307 301 316 327 301 255 240 198 181 181 177 167 151 149 160 181 316 328 343 8 17 3 355 344 58 101 44 359
269 267 186 238 263 257 74 171 291 5 325 323 317 314 301 300 302 299 303 312 309 267 233 202 181 175 173 171 162 157 191 293 302 318 2 25 8 47 320 115 120 68 5 342
227 340 348 286 9 34 324 305 304 302 306 323 316 313 307 302 307 310 306 307 302 281 217 195 183 179 176 171 168 179 279 284 301 312 336 41 323 205 167 155 38 2 355 3
180 189 264 293 140 317 317 309 308 309 308 318 319 310 303 303 314 321 322 313 293 183 172 177 171 185 194 197 205 249 272 275 263 260 249 279 226 201 192 216 327 349 354 351
19 164 273 270 270 286 166 353 341 328 323 328 329 314 305 301 311 311 316 331 225 178 179 187 197 189 190 206 241 267 268 261 200 211 229 246 239 207 236 220 237 315 323 -0
204 262 247 292 0 313 305 326 323 330 337 341 335 328 313 300 304 299 303 297 229 201 211 214 214 191 219 223 250 267 271 231 209 209 250 246 231 256 261 271 291 313 329 333